cover

 

Get it on iTunes StoreListen on Apple Music

Space Rockerz

#Trackname / Key / BPM / Publish dateArtists, Remixers / Label
1 130 bpm, 12A / Db minor, 2018-09-14, Trance,  0  25
2 133 bpm, 12B / E major, 2018-09-14, Trance,  0  25
3 132 bpm, 4B / Ab major, 2018-09-14, Trance,  0  25
4 128 bpm, 1B / B major, 2018-09-14, Trance,  0  25
5 130 bpm, 12A / Db minor, 2018-09-14, Trance,  0  25
6 136 bpm, 8A / A minor, 2018-05-25, Trance,  0  30
7 136 bpm, 8A / A minor, 2018-05-18, Trance,  0  45
8 136 bpm, 8A / A minor, 2018-05-18, Trance,  0  45
9 136 bpm, 8A / A minor, 2017-09-22, Trance,  0  40
10 136 bpm, 8A / A minor, 2017-09-22, Trance,  0  40
11 134 bpm, 4A / F minor, 2017-09-15, House,  0  21
12 128 bpm, 1B / B major, 2017-06-30, Trance,  0  30
13 128 bpm, 7B / F major, 2017-04-28 (2008-12-03), Progressive House,  0  10
14 128 bpm, 7B / F major, 2017-04-28 (2011-03-18), Progressive House,  0  6
15 128 bpm, 7B / F major, 2017-04-28 (2009-09-22), Progressive House,  0  2
16 134 bpm, 8A / A minor, 2017-04-28 (2011-04-12), Progressive House,  0  4
17 128 bpm, 1A / Ab minor, 2017-04-28, Trance,  0  25
18 132 bpm, 4A / F minor, 2017-01-27, Trance,  0  19
19 132 bpm, 4A / F minor, 2017-01-27, Trance,  0  20
20 130 bpm, 12A / Db minor, 2016-12-09, Trance,  0  100
21 128 bpm, 1B / B major, 2016-12-09, Trance,  0  100
22 128 bpm, 5A / C minor, 2016-03-18, Trance,  0  25
23 128 bpm, 5A / C minor, 2016-01-22, Trance,  0  25
24 128 bpm, 5A / C minor, 2015-12-04, Trance,  0  28
25 128 bpm, 5A / C minor, 2015-11-02, Trance,  2  1
26 136 bpm, 8A / A minor, 2015-02-23, Trance,  0  50
27 136 bpm, 8A / A minor, 2014-10-20, Trance,  2  25
28 132 bpm, 8A / A minor, 2014-10-06, Trance,  0  20
29 136 bpm, 8A / A minor, 2014-09-01, Trance,  1  20
30 132 bpm, 4B / Ab major, 2014-08-25, Trance,  0  12
31 136 bpm, 8A / A minor, 2014-08-18, Trance,  0  20
32 136 bpm, 8A / A minor, 2014-07-14, Trance,  0  30
33 132 bpm, 8B / C major, 2014-06-09, Progressive House,  0  1
34 136 bpm, 8A / A minor, 2014-06-02, Trance,  0  20
35 136 bpm, 8A / A minor, 2014-05-19, Trance,  0  25
36 132 bpm, 8A / A minor, 2014-05-05, Trance,  0  25
37 132 bpm, 4B / Ab major, 2014-04-28, Trance,  0  25
38 128 bpm, 12A / Db minor, 2014-04-21, Electronica,  0  13
39 132 bpm, 6A / G minor, 2014-04-14, Trance,  0  5
40 132 bpm, 1A / Ab minor, 2014-04-07, Trance,  0  25
41 132 bpm, 8A / A minor, 2014-03-31, Trance,  0  20
42 132 bpm, 4B / Ab major, 2014-03-31, Trance,  0  20
43 136 bpm, 8A / A minor, 2014-03-24, Trance,  0  25
44 132 bpm, 4B / Ab major, 2014-03-24, Trance,  0  25
45 132 bpm, 4B / Ab major, 2014-03-17, Trance,  0  25
46 136 bpm, 8A / A minor, 2014-03-17, Trance,  0  25
47 132 bpm, 6A / G minor, 2014-03-14, Trance,  0  32
48 132 bpm, 8B / C major, 2014-03-10, Trance,  0  20
49 136 bpm, 8A / A minor, 2014-03-03, Trance,  0  17
50 136 bpm, 8A / A minor, 2014-03-03, Trance,  0  10
51 132 bpm, 8A / A minor, 2014-02-24, Trance,  0  25
52 132 bpm, 8B / C major, 2014-02-17, Trance,  0  25
53 132 bpm, 4B / Ab major, 2014-02-17, Trance,  2  3
54 136 bpm, 8A / A minor, 2014-02-10, Trance,  0  20
55 132 bpm, 8A / A minor, 2014-02-03, Trance,  0  10
56 132 bpm, 8A / A minor, 2014-01-27, Trance,  0  4
57 132 bpm, 8B / C major, 2014-01-27, Trance,  2  4
58 136 bpm, 8A / A minor, 2014-01-27, Trance,  8  4
59 136 bpm, 8A / A minor, 2014-01-27, Trance,  1  4
60 132 bpm, 8A / A minor, 2013-11-11, Trance,  0  20
61 128 bpm, 1B / B major, 2013-11-04, Trance,  0  20
62 130 bpm, 4A / F minor, 2013-11-01, Trance,  0  100
63 128 bpm, 1A / Ab minor, 2013-10-28, Trance,  0  20
64 132 bpm, 8A / A minor, 2013-09-23, Trance,  1  20
65 148 bpm, 1A / Ab minor, 2013-07-22, DJ Tools,  0  12
66 132 bpm, 8A / A minor, 2013-07-01, Trance,  0  10
67 132 bpm, 8A / A minor, 2013-06-24, Trance,  0  20
68 132 bpm, 8A / A minor, 2013-06-10, Trance,  0  20
69 130 bpm, 12A / Db minor, 2013-05-27, Trance,  0  22
70 130 bpm, 12A / Db minor, 2013-05-20, Trance,  0  20
71 133 bpm, 12B / E major, 2013-05-13, Trance,  0  20
72 134 bpm, 2A / Eb minor, 2013-04-29, Trance,  0  20
73 132 bpm, 8A / A minor, 2013-04-22, Trance,  5  1
74 128 bpm, 1A / Ab minor, 2013-04-01, Trance,  1  24
75 128 bpm, 1A / Ab minor, 2013-04-01, Trance,  0  24
76 132 bpm, 1A / Ab minor, 2013-04-01, Trance,  0  24
77 132 bpm, 1A / Ab minor, 2013-04-01, Trance,  0  24
78 128 bpm, 1A / Ab minor, 2013-04-01, Trance,  0  24
79 130 bpm, 12A / Db minor, 2013-04-01, Trance,  0  24
80 133 bpm, 12B / E major, 2013-04-01, Trance,  0  24
81 130 bpm, 12A / Db minor, 2013-04-01, Trance,  1  24
82 128 bpm, 12A / Db minor, 2013-03-25, Electronica,  0  20
83 130 bpm, 12A / Db minor, 2013-03-25, Trance,  0  16
84 132 bpm, 1A / Ab minor, 2013-03-18, Trance,  0  20
85 128 bpm, 1B / B major, 2013-03-11, Trance,  0  20
86 132 bpm, 9A / E minor, 2013-02-22, Trance,  0  11
87 130 bpm, 12A / Db minor, 2013-02-18, Trance,  0  15
88 132 bpm, 1A / Ab minor, 2013-02-18, Trance,  0  10
89 128 bpm, 6A / G minor, 2013-02-18, Trance,  0  20
90 132 bpm, 9A / E minor, 2013-02-01, Trance,  0  104
91 130 bpm, 12A / Db minor, 2013-01-21, Trance,  0  20
92 0 bpm, 4A / F minor, 2013-01-18, Trance,  0  31
93 128 bpm, 1A / Ab minor, 2012-12-10, Trance,  0  10
94 140 bpm, 4A / F minor, 2012-12-07, Trance,  0  10
95 130 bpm, 12A / Db minor, 2012-12-03, Trance,  0  22
96 132 bpm, 9A / E minor, 2012-11-23, Trance,  0  10
97 128 bpm, 1B / B major, 2012-11-12, Trance,  0  15
98 132 bpm, 1A / Ab minor, 2012-11-12, Trance,  0  15
99 130 bpm, 12A / Db minor, 2012-11-12, Trance,  1  15
100 128 bpm, 4B / Ab major, 2012-11-12, Trance,  0  15
×

Sign in

Sign in to access your personalized pages, follow artists and labels you love, and create playlists fromyour favorite tracks.

Please wait...